Location: Capvern
(43.1036°N, 0.3160°E)
Time: 10:24:03
(UTC+00:00)

Cosmos 489 Rocket - Pass Details

Date: 29 May 2022
Orbit: 952 x 983 km, 74.0° (Epoch: 01 July)

Event Time Altitude Azimuth Distance (km) Brightness Sun altitude
Rises 02:52:53 0° 342° (NNW) 3,645 7.9 -13.6°
Reaches altitude 10° 02:55:28 10° 347° (NNW) 2,699 7.3 -13.3°
Maximum altitude 03:01:37 57° 66° (ENE) 1,122 5.2 -12.5°
Drops below altitude 10° 03:07:46 10° 144° (SE) 2,703 6.7 -11.7°
Sets 03:10:21 0° 149° (SSE) 3,650 7.4 -11.4°
